User: anonymous   Login
Location: Codford Saint Peter
(51.1597°N, 2.0531°W)
Time: 07:53:13
(UTC+00:00)
Language:

Cosmos 2263 Rocket - Orbit

View from above orbital plane
View from above orbital plane
View from above satellite
View from above satellite

Ground track
Ground track

The orbit data is extracted from the following two-line orbital elements,

1 22803U 93059B   20329.66731173 -.00000004  00000-0  22052-4 0  9991
2 22803  70.9873 121.6288 0019567 271.9025  87.9858 14.16828881406252
Epoch (UTC): 24 November 2020 16:00:55
Eccentricity: 0.0019567
inclination: 70.9873°
perigee height: 822 km
apogee height: 850 km
right ascension of ascending node: 121.6288°
argument of perigee: 271.9025°
revolutions per day: 14.16828881
mean anomaly at epoch: 87.9858°
orbit number at epoch: 40625

The dashed part of the orbit path shows where the satellite is in the earth's shadow,  

DLR